Location: Allen Fire Department Station 4
(33.1073°N, 96.6988°W)
Time: 10:31:48
(UTC+00:00)

OE (NEXTSAT) - Pass Details

Date: 03 December 2021
Orbit: 416 x 425 km, 46.0° (Epoch: 23 January)

Event Time Altitude Azimuth Distance (km) Brightness Sun altitude
Exits shadow 12:13:23 21° 301° (WNW) 1,002 5.5 -12.6°
Maximum altitude 12:15:30 77° 217° (SW) 437 4.2 -12.1°
Drops below altitude 10° 12:18:54 10° 131° (SE) 1,507 8.3 -11.5°
Sets 12:21:01 0° 130° (SE) 2,371 9.6 -11.0°
